Time,TemperatureF,DewpointF,PressureIn,WindDirection,WindDirectionDegrees,WindSpeedMPH,WindSpeedGustMPH,Humidity,HourlyPrecipIn,Conditions,Clouds,dailyrainin,SoftwareType,DateUTC
2013-02-05 00:01:00,27.3,25.0,29.92,NNE,14,3.0,-999.0,92,-99.99,,,0.00,weatherlink.com 1.10,2013-02-05 05:01:00,
2013-02-05 00:16:00,27.2,23.0,29.93,NNE,23,4.0,-999.0,85,-99.99,,,0.00,weatherlink.com 1.10,2013-02-05 05:16:00,
2013-02-05 00:31:00,27.2,23.0,29.93,NNE,28,2.0,-999.0,85,-99.99,,,0.00,weatherlink.com 1.10,2013-02-05 05:31:00,
2013-02-05 00:46:00,27.0,23.0,29.93,NNE,28,1.0,-999.0,86,-99.99,,,0.00,weatherlink.com 1.10,2013-02-05 05:46:00,
2013-02-05 01:01:00,26.9,23.0,29.93,NNE,30,1.0,-999.0,86,-99.99,,,0.00,weatherlink.com 1.10,2013-02-05 06:01:00,
2013-02-05 01:16:00,26.9,23.0,29.93,NNE,30,1.0,-999.0,86,-99.99,,,0.00,weatherlink.com 1.10,2013-02-05 06:16:00,
2013-02-05 01:31:00,26.7,23.0,29.92,NNE,30,0.0,-999.0,86,-99.99,,,0.00,weatherlink.com 1.10,2013-02-05 06:31:00,
2013-02-05 01:46:00,26.6,23.0,29.92,NNE,30,0.0,-999.0,87,-99.99,,,0.00,weatherlink.com 1.10,2013-02-05 06:46:00,
2013-02-05 02:01:00,26.2,23.0,29.93,NNE,30,0.0,-999.0,86,-99.99,,,0.00,weatherlink.com 1.10,2013-02-05 07:01:00,
2013-02-05 02:16:00,25.8,22.0,29.93,NNE,30,0.0,-999.0,86,-99.99,,,0.00,weatherlink.com 1.10,2013-02-05 07:16:00,
2013-02-05 02:31:00,25.6,22.0,29.93,NNE,30,0.0,-999.0,87,-99.99,,,0.00,weatherlink.com 1.10,2013-02-05 07:31:00,
2013-02-05 02:46:00,25.2,22.0,29.93,NNE,30,0.0,-999.0,87,-99.99,,,0.00,weatherlink.com 1.10,2013-02-05 07:46:00,
2013-02-05 03:01:00,25.0,22.0,29.93,NNE,30,0.0,-999.0,88,-99.99,,,0.00,weatherlink.com 1.10,2013-02-05 08:01:00,
2013-02-05 03:16:00,24.6,22.0,29.93,NNE,30,0.0,-999.0,89,-99.99,,,0.00,weatherlink.com 1.10,2013-02-05 08:16:00,
2013-02-05 03:32:00,24.2,22.0,29.92,NNE,30,1.0,-999.0,90,-99.99,,,0.00,weatherlink.com 1.10,2013-02-05 08:32:00,
2013-02-05 03:47:00,24.2,22.0,29.91,NNE,30,0.0,-999.0,90,-99.99,,,0.00,weatherlink.com 1.10,2013-02-05 08:47:00,
2013-02-05 04:02:00,24.2,22.0,29.91,NNE,30,0.0,-999.0,90,-99.99,,,0.00,weatherlink.com 1.10,2013-02-05 09:02:00,
2013-02-05 04:17:00,24.3,22.0,29.92,NNE,30,1.0,-999.0,90,-99.99,,,0.00,weatherlink.com 1.10,2013-02-05 09:17:00,
2013-02-05 04:32:00,24.6,22.0,29.92,NNE,30,0.0,-999.0,90,-99.99,,,0.00,weatherlink.com 1.10,2013-02-05 09:32:00,
2013-02-05 04:47:00,24.7,22.0,29.92,NNE,30,0.0,-999.0,90,-99.99,,,0.00,weatherlink.com 1.10,2013-02-05 09:47:00,
2013-02-05 05:02:00,24.6,22.0,29.92,NNE,30,0.0,-999.0,91,-99.99,,,0.00,weatherlink.com 1.10,2013-02-05 10:02:00,
2013-02-05 05:17:00,24.3,22.0,29.92,NNE,30,0.0,-999.0,91,-99.99,,,0.00,weatherlink.com 1.10,2013-02-05 10:17:00,
2013-02-05 05:32:00,24.2,22.0,29.92,NNE,30,0.0,-999.0,92,-99.99,,,0.00,weatherlink.com 1.10,2013-02-05 10:32:00,
2013-02-05 05:47:00,24.7,23.0,29.92,NNE,30,0.0,-999.0,92,-99.99,,,0.00,weatherlink.com 1.10,2013-02-05 10:47:00,
2013-02-05 06:02:00,24.4,22.0,29.92,NNE,30,0.0,-999.0,92,-99.99,,,0.00,weatherlink.com 1.10,2013-02-05 11:02:00,
2013-02-05 06:17:00,23.8,22.0,29.92,NNE,30,0.0,-999.0,92,-99.99,,,0.00,weatherlink.com 1.10,2013-02-05 11:17:00,
2013-02-05 06:32:00,23.6,22.0,29.92,NNE,30,0.0,-999.0,92,-99.99,,,0.00,weatherlink.com 1.10,2013-02-05 11:32:00,
2013-02-05 06:47:00,23.6,22.0,29.92,NNE,30,0.0,-999.0,93,-99.99,,,0.00,weatherlink.com 1.10,2013-02-05 11:47:00,
2013-02-05 07:02:00,24.0,22.0,29.93,NNE,30,0.0,-999.0,93,-99.99,,,0.00,weatherlink.com 1.10,2013-02-05 12:02:00,
2013-02-05 07:17:00,24.3,23.0,29.92,NNE,30,2.0,-999.0,93,-99.99,,,0.00,weatherlink.com 1.10,2013-02-05 12:17:00,
2013-02-05 07:32:00,24.1,22.0,29.93,NNE,30,1.0,-999.0,92,-99.99,,,0.00,weatherlink.com 1.10,2013-02-05 12:32:00,
2013-02-05 07:47:00,24.2,23.0,29.93,NNE,30,2.0,-999.0,93,-99.99,,,0.00,weatherlink.com 1.10,2013-02-05 12:47:00,
2013-02-05 08:02:00,24.2,22.0,29.92,SE,143,0.0,-999.0,92,-99.99,,,0.00,weatherlink.com 1.10,2013-02-05 13:02:00,
2013-02-05 08:17:00,24.7,23.0,29.91,SE,143,0.0,-999.0,92,-99.99,,,0.00,weatherlink.com 1.10,2013-02-05 13:17:00,
2013-02-05 08:32:00,25.2,23.0,29.93,SE,144,4.0,-999.0,91,-99.99,,,0.00,weatherlink.com 1.10,2013-02-05 13:32:00,
2013-02-05 08:47:00,25.7,23.0,29.93,SSW,202,3.0,-999.0,90,-99.99,,,0.00,weatherlink.com 1.10,2013-02-05 13:47:00,
2013-02-05 09:02:00,26.1,23.0,29.95,SSW,213,5.0,-999.0,89,-99.99,,,0.00,weatherlink.com 1.10,2013-02-05 14:02:00,
2013-02-05 09:17:00,26.4,24.0,29.94,SW,214,7.0,-999.0,89,-99.99,,,0.00,weatherlink.com 1.10,2013-02-05 14:17:00,
2013-02-05 09:32:00,26.7,23.0,29.93,SSW,210,2.0,-999.0,87,-99.99,,,0.00,weatherlink.com 1.10,2013-02-05 14:32:00,
2013-02-05 09:47:00,26.9,24.0,29.94,SSW,210,3.0,-999.0,87,-99.99,,,0.00,weatherlink.com 1.10,2013-02-05 14:47:00,
2013-02-05 10:02:00,27.3,24.0,29.93,South,187,4.0,-999.0,86,-99.99,,,0.00,weatherlink.com 1.10,2013-02-05 15:02:00,
2013-02-05 10:17:00,27.7,24.0,29.93,South,184,5.0,-999.0,85,-99.99,,,0.00,weatherlink.com 1.10,2013-02-05 15:17:00,
2013-02-05 10:32:00,28.1,25.0,29.93,South,182,6.0,-999.0,86,-99.99,,,0.00,weatherlink.com 1.10,2013-02-05 15:32:00,
2013-02-05 10:47:00,28.5,24.0,29.92,South,184,7.0,-999.0,84,-99.99,,,0.00,weatherlink.com 1.10,2013-02-05 15:47:00,
2013-02-05 11:02:00,28.9,25.0,29.92,South,180,4.0,-999.0,85,-99.99,,,0.00,weatherlink.com 1.10,2013-02-05 16:02:00,
2013-02-05 11:17:00,29.4,25.0,29.91,South,178,7.0,-999.0,83,-99.99,,,0.00,weatherlink.com 1.10,2013-02-05 16:17:00,
2013-02-05 11:32:00,29.7,25.0,29.91,South,186,6.0,-999.0,82,-99.99,,,0.00,weatherlink.com 1.10,2013-02-05 16:32:00,
2013-02-05 11:47:00,30.1,25.0,29.90,South,188,5.0,-999.0,81,-99.99,,,0.00,weatherlink.com 1.10,2013-02-05 16:47:00,
2013-02-05 12:02:00,30.3,25.0,29.89,SSW,204,9.0,-999.0,82,-99.99,,,0.00,weatherlink.com 1.10,2013-02-05 17:02:00,
2013-02-05 12:17:00,30.4,25.0,29.89,SSW,194,8.0,-999.0,81,-99.99,,,0.00,weatherlink.com 1.10,2013-02-05 17:17:00,
2013-02-05 12:32:00,30.6,25.0,29.88,SSW,198,10.0,-999.0,81,-99.99,,,0.00,weatherlink.com 1.10,2013-02-05 17:32:00,
2013-02-05 12:47:00,30.8,25.0,29.87,South,186,8.0,-999.0,80,-99.99,,,0.00,weatherlink.com 1.10,2013-02-05 17:47:00,
2013-02-05 13:02:00,31.1,26.0,29.86,SSW,196,13.0,-999.0,80,-99.99,,,0.00,weatherlink.com 1.10,2013-02-05 18:02:00,
2013-02-05 13:17:00,31.5,26.0,29.85,SSW,196,12.0,-999.0,79,-99.99,,,0.00,weatherlink.com 1.10,2013-02-05 18:17:00,
2013-02-05 13:32:00,31.8,26.0,29.84,SW,215,11.0,-999.0,79,-99.99,,,0.00,weatherlink.com 1.10,2013-02-05 18:32:00,
2013-02-05 13:48:00,32.3,27.0,29.84,SSW,194,9.0,-999.0,80,-99.99,,,0.00,weatherlink.com 1.10,2013-02-05 18:48:00,
2013-02-05 14:03:00,32.7,28.0,29.84,SSW,204,13.0,-999.0,82,-99.99,,,0.00,weatherlink.com 1.10,2013-02-05 19:03:00,
2013-02-05 14:18:00,33.0,28.0,29.82,SW,223,13.0,-999.0,82,-99.99,,,0.00,weatherlink.com 1.10,2013-02-05 19:18:00,
2013-02-05 14:33:00,33.3,28.0,29.82,SW,215,14.0,-999.0,81,-99.99,,,0.00,weatherlink.com 1.10,2013-02-05 19:33:00,
2013-02-05 14:48:00,33.6,29.0,29.82,SW,223,9.0,-999.0,82,-99.99,,,0.00,weatherlink.com 1.10,2013-02-05 19:48:00,
2013-02-05 15:03:00,34.1,29.0,29.82,SW,236,11.0,-999.0,82,-99.99,,,0.00,weatherlink.com 1.10,2013-02-05 20:03:00,
2013-02-05 15:18:00,34.1,29.0,29.82,SW,235,6.0,-999.0,82,-99.99,,,0.00,weatherlink.com 1.10,2013-02-05 20:18:00,
2013-02-05 15:33:00,34.5,30.0,29.83,SW,229,9.0,-999.0,83,-99.99,,,0.00,weatherlink.com 1.10,2013-02-05 20:33:00,
2013-02-05 15:48:00,34.7,30.0,29.84,SW,226,8.0,-999.0,84,-99.99,,,0.00,weatherlink.com 1.10,2013-02-05 20:48:00,
2013-02-05 16:03:00,34.9,31.0,29.84,WSW,245,12.0,-999.0,84,-99.99,,,0.00,weatherlink.com 1.10,2013-02-05 21:03:00,
2013-02-05 16:18:00,35.0,31.0,29.85,WSW,242,5.0,-999.0,85,-99.99,,,0.00,weatherlink.com 1.10,2013-02-05 21:18:00,
2013-02-05 16:33:00,35.1,31.0,29.86,WSW,249,13.0,-999.0,86,-99.99,,,0.00,weatherlink.com 1.10,2013-02-05 21:33:00,
2013-02-05 16:48:00,35.0,32.0,29.87,WSW,247,9.0,-999.0,87,-99.99,,,0.00,weatherlink.com 1.10,2013-02-05 21:48:00,
2013-02-05 17:03:00,34.8,32.0,29.87,WSW,242,8.0,-999.0,88,-99.99,,,0.00,weatherlink.com 1.10,2013-02-05 22:03:00,
2013-02-05 17:18:00,34.9,32.0,29.87,WSW,244,7.0,-999.0,89,-99.99,,,0.00,weatherlink.com 1.10,2013-02-05 22:18:00,
2013-02-05 17:33:00,35.1,32.0,29.88,WSW,237,6.0,-999.0,89,-99.99,,,0.00,weatherlink.com 1.10,2013-02-05 22:33:00,
2013-02-05 17:48:00,35.1,33.0,29.89,SW,232,5.0,-999.0,90,-99.99,,,0.00,weatherlink.com 1.10,2013-02-05 22:48:00,
2013-02-05 18:03:00,35.1,33.0,29.89,WSW,248,7.0,-999.0,90,-99.99,,,0.00,weatherlink.com 1.10,2013-02-05 23:03:00,
2013-02-05 18:18:00,35.1,33.0,29.90,West,263,5.0,-999.0,90,-99.99,,,0.00,weatherlink.com 1.10,2013-02-05 23:18:00,
2013-02-05 18:33:00,35.1,33.0,29.91,WSW,254,3.0,-999.0,91,-99.99,,,0.00,weatherlink.com 1.10,2013-02-05 23:33:00,
2013-02-05 18:48:00,35.0,33.0,29.91,West,260,4.0,-999.0,91,-99.99,,,0.00,weatherlink.com 1.10,2013-02-05 23:48:00,
2013-02-05 19:03:00,35.0,33.0,29.92,WNW,294,5.0,-999.0,91,-99.99,,,0.00,weatherlink.com 1.10,2013-02-06 00:03:00,
2013-02-05 19:18:00,35.1,33.0,29.93,West,259,3.0,-999.0,91,-99.99,,,0.00,weatherlink.com 1.10,2013-02-06 00:18:00,
2013-02-05 19:33:00,35.2,33.0,29.93,WNW,286,3.0,-999.0,91,-99.99,,,0.00,weatherlink.com 1.10,2013-02-06 00:33:00,
2013-02-05 19:48:00,35.5,33.0,29.94,West,278,3.0,-999.0,90,-99.99,,,0.00,weatherlink.com 1.10,2013-02-06 00:48:00,
2013-02-05 20:03:00,35.5,33.0,29.95,West,267,3.0,-999.0,89,-99.99,,,0.00,weatherlink.com 1.10,2013-02-06 01:03:00,
2013-02-05 20:18:00,35.4,33.0,29.95,NW,321,1.0,-999.0,89,-99.99,,,0.00,weatherlink.com 1.10,2013-02-06 01:18:00,
2013-02-05 20:33:00,35.1,32.0,29.96,WNW,303,2.0,-999.0,89,-99.99,,,0.00,weatherlink.com 1.10,2013-02-06 01:33:00,
2013-02-05 20:48:00,35.0,32.0,29.97,NNW,344,4.0,-999.0,89,-99.99,,,0.00,weatherlink.com 1.10,2013-02-06 01:48:00,
2013-02-05 21:03:00,35.0,32.0,29.98,WNW,288,4.0,-999.0,88,-99.99,,,0.00,weatherlink.com 1.10,2013-02-06 02:03:00,
2013-02-05 21:18:00,34.7,32.0,29.99,WNW,289,7.0,-999.0,89,-99.99,,,0.00,weatherlink.com 1.10,2013-02-06 02:18:00,
2013-02-05 21:33:00,34.2,31.0,29.99,NNW,333,5.0,-999.0,89,-99.99,,,0.00,weatherlink.com 1.10,2013-02-06 02:33:00,
2013-02-05 21:48:00,33.5,31.0,30.00,WNW,295,5.0,-999.0,89,-99.99,,,0.00,weatherlink.com 1.10,2013-02-06 02:48:00,
2013-02-05 22:03:00,33.2,30.0,30.01,NW,306,3.0,-999.0,89,-99.99,,,0.00,weatherlink.com 1.10,2013-02-06 03:03:00,
2013-02-05 22:18:00,32.9,30.0,30.02,NNW,342,4.0,-999.0,90,-99.99,,,0.00,weatherlink.com 1.10,2013-02-06 03:18:00,
2013-02-05 22:33:00,32.4,30.0,30.03,WNW,288,5.0,-999.0,90,-99.99,,,0.00,weatherlink.com 1.10,2013-02-06 03:33:00,
2013-02-05 22:48:00,32.3,30.0,30.03,NW,324,5.0,-999.0,89,-99.99,,,0.00,weatherlink.com 1.10,2013-02-06 03:48:00,
2013-02-05 23:03:00,32.1,29.0,30.04,NNW,328,4.0,-999.0,89,-99.99,,,0.00,weatherlink.com 1.10,2013-02-06 04:03:00,
2013-02-05 23:18:00,31.8,29.0,30.04,NW,314,1.0,-999.0,89,-99.99,,,0.00,weatherlink.com 1.10,2013-02-06 04:18:00,
2013-02-05 23:33:00,31.5,29.0,30.04,NNE,20,5.0,-999.0,89,-99.99,,,0.00,weatherlink.com 1.10,2013-02-06 04:33:00,
2013-02-05 23:48:00,31.3,29.0,30.05,West,279,7.0,-999.0,89,-99.99,,,0.00,weatherlink.com 1.10,2013-02-06 04:48:00,